Time,TemperatureF,DewpointF,PressureIn,WindDirection,WindDirectionDegrees,WindSpeedMPH,WindSpeedGustMPH,Humidity,HourlyPrecipIn,Conditions,Clouds,dailyrainin,SoftwareType,DateUTC
2013-05-19 00:01:00,62.4,46.0,29.98,NNW,328,0.0,0.0,55,0.00,CLR,,0.00,WeatherDisplay:10.37,2013-05-19 07:01:00,
2013-05-19 00:06:00,62.2,43.8,29.98,NNW,328,0.0,0.0,51,0.00,CLR,,0.00,WeatherDisplay:10.37,2013-05-19 07:06:00,
2013-05-19 00:11:00,62.0,44.2,29.99,NNW,328,0.0,0.0,52,0.00,CLR,,0.00,WeatherDisplay:10.37,2013-05-19 07:11:00,
2013-05-19 00:16:00,61.9,45.5,29.99,NNW,328,0.0,0.0,55,0.00,CLR,,0.00,WeatherDisplay:10.37,2013-05-19 07:16:00,
2013-05-19 00:21:00,61.9,45.1,29.99,NNW,328,0.0,0.0,54,0.00,CLR,,0.00,WeatherDisplay:10.37,2013-05-19 07:21:00,
2013-05-19 00:26:00,61.7,44.4,29.99,NNW,328,0.0,0.0,53,0.00,CLR,,0.00,WeatherDisplay:10.37,2013-05-19 07:26:00,
2013-05-19 00:31:00,61.5,44.7,29.99,NNW,328,0.0,0.0,54,0.00,CLR,,0.00,WeatherDisplay:10.37,2013-05-19 07:31:00,
2013-05-19 00:36:00,61.3,44.0,29.98,NNW,328,0.0,0.0,53,0.00,CLR,,0.00,WeatherDisplay:10.37,2013-05-19 07:36:00,
2013-05-19 00:41:00,61.2,45.4,29.99,NNW,328,0.0,0.0,56,0.00,CLR,,0.00,WeatherDisplay:10.37,2013-05-19 07:41:00,
2013-05-19 00:46:00,61.2,44.9,29.98,NNW,328,0.0,0.0,55,0.00,CLR,,0.00,WeatherDisplay:10.37,2013-05-19 07:46:00,
2013-05-19 00:51:00,61.0,44.7,29.98,NNW,328,0.0,0.0,55,0.00,CLR,,0.00,WeatherDisplay:10.37,2013-05-19 07:51:00,
2013-05-19 00:56:00,60.8,44.5,29.98,NNW,328,0.0,0.0,55,0.00,CLR,,0.00,WeatherDisplay:10.37,2013-05-19 07:56:00,
2013-05-19 01:01:00,60.8,44.5,29.98,NNW,328,0.0,0.0,55,0.00,CLR,,0.00,WeatherDisplay:10.37,2013-05-19 08:01:00,
2013-05-19 01:06:00,60.9,44.6,29.99,NNW,328,0.0,0.0,55,0.00,CLR,,0.00,WeatherDisplay:10.37,2013-05-19 08:06:00,
2013-05-19 01:11:00,60.8,44.0,29.99,NNW,328,0.0,0.0,54,0.00,CLR,,0.00,WeatherDisplay:10.37,2013-05-19 08:11:00,
2013-05-19 01:16:00,60.7,44.4,29.98,NNW,328,0.0,0.0,55,0.00,CLR,,0.00,WeatherDisplay:10.37,2013-05-19 08:16:00,
2013-05-19 01:21:00,60.6,44.8,29.98,NNW,328,0.0,0.0,56,0.00,CLR,,0.00,WeatherDisplay:10.37,2013-05-19 08:21:00,
2013-05-19 01:26:00,60.4,44.6,29.98,NNW,328,0.0,0.0,56,0.00,CLR,,0.00,WeatherDisplay:10.37,2013-05-19 08:26:00,
2013-05-19 01:31:00,60.3,45.0,29.98,NNW,328,0.0,0.0,57,0.00,CLR,,0.00,WeatherDisplay:10.37,2013-05-19 08:31:00,
2013-05-19 01:36:00,60.0,44.7,29.98,NNW,328,0.0,0.0,57,0.00,CLR,,0.00,WeatherDisplay:10.37,2013-05-19 08:36:00,
2013-05-19 01:41:00,59.7,44.4,29.98,NNW,328,0.0,0.0,57,0.00,CLR,,0.00,WeatherDisplay:10.37,2013-05-19 08:41:00,
2013-05-19 01:46:00,59.4,44.6,29.98,NNW,328,0.0,0.0,58,0.00,CLR,,0.00,WeatherDisplay:10.37,2013-05-19 08:46:00,
2013-05-19 01:51:00,59.1,43.9,29.98,NNW,328,0.0,0.0,57,0.00,CLR,,0.00,WeatherDisplay:10.37,2013-05-19 08:51:00,
2013-05-19 01:56:00,58.8,44.0,29.98,NNW,328,0.0,0.0,58,0.00,CLR,,0.00,WeatherDisplay:10.37,2013-05-19 08:56:00,
2013-05-19 02:01:00,58.6,42.9,29.98,NNW,328,0.0,0.0,56,0.00,CLR,,0.00,WeatherDisplay:10.37,2013-05-19 09:01:00,
2013-05-19 02:06:00,58.3,44.0,29.98,NNW,328,0.0,0.0,59,0.00,CLR,,0.00,WeatherDisplay:10.37,2013-05-19 09:06:00,
2013-05-19 02:11:00,58.1,43.8,29.98,NNW,328,0.0,0.0,59,0.00,CLR,,0.00,WeatherDisplay:10.37,2013-05-19 09:11:00,
2013-05-19 02:16:00,57.8,44.0,29.98,NNW,328,0.0,0.0,60,0.00,CLR,,0.00,WeatherDisplay:10.37,2013-05-19 09:16:00,
2013-05-19 02:21:00,57.6,43.8,29.98,NNW,328,0.0,0.0,60,0.00,CLR,,0.00,WeatherDisplay:10.37,2013-05-19 09:21:00,
2013-05-19 02:26:00,57.3,44.0,29.98,NNW,328,0.0,0.0,61,0.00,CLR,,0.00,WeatherDisplay:10.37,2013-05-19 09:26:00,
2013-05-19 02:31:00,57.2,43.0,29.98,NNW,328,0.0,0.0,59,0.00,CLR,,0.00,WeatherDisplay:10.37,2013-05-19 09:31:00,
2013-05-19 02:36:00,57.3,43.1,29.98,NNW,328,0.0,0.0,59,0.00,CLR,,0.00,WeatherDisplay:10.37,2013-05-19 09:36:00,
2013-05-19 02:41:00,57.2,43.9,29.98,NNW,328,0.0,0.0,61,0.00,CLR,,0.00,WeatherDisplay:10.37,2013-05-19 09:41:00,
2013-05-19 02:46:00,57.0,43.7,29.98,NNW,328,0.0,0.0,61,0.00,CLR,,0.00,WeatherDisplay:10.37,2013-05-19 09:46:00,
2013-05-19 02:51:00,56.9,43.6,29.98,NNW,328,0.0,0.0,61,0.00,CLR,,0.00,WeatherDisplay:10.37,2013-05-19 09:51:00,
2013-05-19 02:56:00,56.6,42.9,29.98,NNW,328,0.0,0.0,60,0.00,CLR,,0.00,WeatherDisplay:10.37,2013-05-19 09:56:00,
2013-05-19 03:01:00,56.5,43.2,29.98,NNW,328,0.0,0.0,61,0.00,CLR,,0.00,WeatherDisplay:10.37,2013-05-19 10:01:00,
2013-05-19 03:06:00,56.4,43.5,29.98,NNW,328,0.0,0.0,62,0.00,CLR,,0.00,WeatherDisplay:10.37,2013-05-19 10:06:00,
2013-05-19 03:11:00,56.3,43.4,29.98,NNW,327,0.0,0.0,62,0.00,CLR,,0.00,WeatherDisplay:10.37,2013-05-19 10:11:00,
2013-05-19 03:16:00,56.1,43.3,29.98,NNW,328,0.0,0.0,62,0.00,CLR,,0.00,WeatherDisplay:10.37,2013-05-19 10:16:00,
2013-05-19 03:21:00,56.0,43.6,29.98,NNW,328,0.0,0.0,63,0.00,CLR,,0.00,WeatherDisplay:10.37,2013-05-19 10:21:00,
2013-05-19 03:26:00,55.8,43.4,29.98,NNW,328,0.0,0.0,63,0.00,CLR,,0.00,WeatherDisplay:10.37,2013-05-19 10:26:00,
2013-05-19 03:31:00,55.6,43.2,29.98,NNW,328,0.0,0.0,63,0.00,CLR,,0.00,WeatherDisplay:10.37,2013-05-19 10:31:00,
2013-05-19 03:36:00,55.5,43.5,29.98,NNW,328,0.0,0.0,64,0.00,CLR,,0.00,WeatherDisplay:10.37,2013-05-19 10:36:00,
2013-05-19 03:41:00,55.3,43.3,29.98,NNW,328,0.0,0.0,64,0.00,CLR,,0.00,WeatherDisplay:10.37,2013-05-19 10:41:00,
2013-05-19 03:46:00,55.1,43.1,29.98,NNW,328,0.0,0.0,64,0.00,CLR,,0.00,WeatherDisplay:10.37,2013-05-19 10:46:00,
2013-05-19 03:51:00,54.9,42.5,29.98,NNW,328,0.0,0.0,63,0.00,CLR,,0.00,WeatherDisplay:10.37,2013-05-19 10:51:00,
2013-05-19 03:56:00,54.8,42.9,29.98,NNW,328,0.0,0.0,64,0.00,CLR,,0.00,WeatherDisplay:10.37,2013-05-19 10:56:00,
2013-05-19 04:01:00,54.6,42.3,29.98,NNW,328,0.0,0.0,63,0.00,CLR,,0.00,WeatherDisplay:10.37,2013-05-19 11:01:00,
2013-05-19 04:06:00,54.6,41.8,29.98,NNW,328,0.0,0.0,62,0.00,CLR,,0.00,WeatherDisplay:10.37,2013-05-19 11:06:00,
2013-05-19 04:11:00,55.4,41.3,29.98,NNW,328,0.0,0.0,59,0.00,CLR,,0.00,WeatherDisplay:10.37,2013-05-19 11:11:00,
2013-05-19 04:16:00,56.2,41.6,29.99,NNW,328,0.0,0.0,58,0.00,CLR,,0.00,WeatherDisplay:10.37,2013-05-19 11:16:00,
2013-05-19 04:21:00,56.4,41.8,29.99,NNW,328,0.0,0.0,58,0.00,CLR,,0.00,WeatherDisplay:10.37,2013-05-19 11:21:00,
2013-05-19 04:26:00,56.4,42.2,29.99,NNW,328,0.0,0.0,59,0.00,CLR,,0.00,WeatherDisplay:10.37,2013-05-19 11:26:00,
2013-05-19 04:31:00,56.1,41.5,29.99,NNW,328,0.0,0.0,58,0.00,CLR,,0.00,WeatherDisplay:10.37,2013-05-19 11:31:00,
2013-05-19 04:36:00,55.9,42.2,29.99,NNW,328,0.0,0.0,60,0.00,CLR,,0.00,WeatherDisplay:10.37,2013-05-19 11:36:00,
2013-05-19 04:41:00,55.8,41.7,29.99,NNW,328,0.0,0.0,59,0.00,CLR,,0.00,WeatherDisplay:10.37,2013-05-19 11:41:00,
2013-05-19 04:46:00,55.8,41.2,29.99,NNW,328,0.0,0.0,58,0.00,CLR,,0.00,WeatherDisplay:10.37,2013-05-19 11:46:00,
2013-05-19 04:51:00,56.0,42.3,29.99,NNW,328,0.0,0.0,60,0.00,CLR,,0.00,WeatherDisplay:10.37,2013-05-19 11:51:00,
2013-05-19 04:56:00,56.1,42.4,29.99,NNW,328,0.0,0.0,60,0.00,CLR,,0.00,WeatherDisplay:10.37,2013-05-19 11:56:00,
2013-05-19 05:01:00,55.9,42.6,29.99,NNW,328,0.0,0.0,61,0.00,CLR,,0.00,WeatherDisplay:10.37,2013-05-19 12:01:00,
2013-05-19 05:06:00,55.7,42.0,29.99,NNW,328,0.0,0.0,60,0.00,CLR,,0.00,WeatherDisplay:10.37,2013-05-19 12:06:00,
2013-05-19 05:11:00,55.7,42.5,29.99,NNW,328,0.0,0.0,61,0.00,CLR,,0.00,WeatherDisplay:10.37,2013-05-19 12:11:00,
2013-05-19 05:16:00,55.6,41.9,29.99,NNW,328,0.0,0.0,60,0.00,CLR,,0.00,WeatherDisplay:10.37,2013-05-19 12:16:00,
2013-05-19 05:21:00,55.7,41.6,29.99,NNW,328,0.0,0.0,59,0.00,CLR,,0.00,WeatherDisplay:10.37,2013-05-19 12:21:00,
2013-05-19 05:26:00,55.7,41.6,29.99,NNW,328,0.0,0.0,59,0.00,CLR,,0.00,WeatherDisplay:10.37,2013-05-19 12:26:00,
2013-05-19 05:31:00,55.7,41.6,29.99,NNW,328,0.0,0.0,59,0.00,CLR,,0.00,WeatherDisplay:10.37,2013-05-19 12:31:00,
2013-05-19 05:36:00,55.6,41.0,30.00,NNW,328,0.0,0.0,58,0.00,CLR,,0.00,WeatherDisplay:10.37,2013-05-19 12:36:00,
2013-05-19 05:41:00,55.5,41.4,30.00,NNW,328,0.0,0.0,59,0.00,CLR,,0.00,WeatherDisplay:10.37,2013-05-19 12:41:00,
2013-05-19 05:46:00,55.4,41.7,30.00,NNW,328,0.0,0.0,60,0.00,CLR,,0.00,WeatherDisplay:10.37,2013-05-19 12:46:00,
2013-05-19 05:51:00,55.2,41.5,30.00,NNW,328,1.2,0.0,60,0.00,CLR,,0.00,WeatherDisplay:10.37,2013-05-19 12:51:00,
2013-05-19 05:56:00,55.0,41.8,30.00,NNW,328,0.0,0.0,61,0.00,CLR,,0.00,WeatherDisplay:10.37,2013-05-19 12:56:00,
2013-05-19 06:01:00,54.9,42.1,30.00,NNW,328,0.0,0.0,62,0.00,CLR,,0.00,WeatherDisplay:10.37,2013-05-19 13:01:00,
2013-05-19 06:06:00,54.8,42.0,30.00,NNW,328,0.0,0.0,62,0.00,CLR,,0.00,WeatherDisplay:10.37,2013-05-19 13:06:00,
2013-05-19 06:11:00,54.8,42.4,30.00,NNW,328,0.0,0.0,63,0.00,CLR,,0.00,WeatherDisplay:10.37,2013-05-19 13:11:00,
2013-05-19 06:16:00,54.7,41.9,30.00,NNW,328,0.0,0.0,62,0.00,CLR,,0.00,WeatherDisplay:10.37,2013-05-19 13:16:00,
2013-05-19 06:21:00,54.7,42.3,30.00,NNW,328,0.0,0.0,63,0.00,CLR,,0.00,WeatherDisplay:10.37,2013-05-19 13:21:00,
2013-05-19 06:26:00,54.7,42.3,30.00,NNW,328,0.0,0.0,63,0.00,CLR,,0.00,WeatherDisplay:10.37,2013-05-19 13:26:00,
2013-05-19 06:31:00,54.9,42.5,30.01,NNW,328,0.0,0.0,63,0.00,CLR,,0.00,WeatherDisplay:10.37,2013-05-19 13:31:00,
2013-05-19 06:36:00,55.0,41.8,30.01,NNW,328,0.0,0.0,61,0.00,CLR,,0.00,WeatherDisplay:10.37,2013-05-19 13:36:00,
2013-05-19 06:41:00,55.1,42.7,30.01,NNW,328,0.0,0.0,63,0.00,CLR,,0.00,WeatherDisplay:10.37,2013-05-19 13:41:00,
2013-05-19 06:46:00,55.1,42.7,30.01,NNW,328,0.0,0.0,63,0.00,CLR,,0.00,WeatherDisplay:10.37,2013-05-19 13:46:00,
2013-05-19 06:51:00,55.4,43.0,30.01,NNW,328,0.0,0.0,63,0.00,CLR,,0.00,WeatherDisplay:10.37,2013-05-19 13:51:00,
2013-05-19 06:56:00,55.7,42.9,30.01,NNW,328,0.0,0.0,62,0.00,CLR,,0.00,WeatherDisplay:10.37,2013-05-19 13:56:00,
2013-05-19 07:01:00,56.1,42.8,30.01,NNW,328,0.0,0.1,61,0.00,CLR,,0.00,WeatherDisplay:10.37,2013-05-19 14:01:00,
2013-05-19 07:06:00,56.5,43.6,30.01,NNW,328,0.0,0.0,62,0.00,CLR,,0.00,WeatherDisplay:10.37,2013-05-19 14:06:00,
2013-05-19 07:09:00,71.4,52.9,30.01,SSW,207,0.0,0.1,52,0.00,CLR,,0.00,WeatherDisplay:10.37,2013-05-19 14:09:00,
2013-05-19 07:10:00,71.4,52.9,30.01,SSW,207,1.2,1.2,52,0.00,CLR,,0.00,WeatherDisplay:10.37,2013-05-19 14:10:00,
2013-05-19 07:11:00,56.8,44.3,30.01,NNW,328,0.0,0.0,63,0.00,CLR,,0.00,WeatherDisplay:10.37,2013-05-19 14:11:00,
2013-05-19 07:16:00,57.1,44.6,30.02,NNW,328,0.0,0.0,63,0.00,CLR,,0.00,WeatherDisplay:10.37,2013-05-19 14:16:00,
2013-05-19 07:21:00,57.6,45.1,30.02,NNW,328,0.0,0.0,63,0.00,CLR,,0.00,WeatherDisplay:10.37,2013-05-19 14:21:00,
2013-05-19 07:26:00,58.0,45.0,30.02,SW,219,0.0,0.0,62,0.00,CLR,,0.00,WeatherDisplay:10.37,2013-05-19 14:26:00,
2013-05-19 07:31:00,58.5,45.9,30.02,SW,222,0.0,0.0,63,0.00,CLR,,0.00,WeatherDisplay:10.37,2013-05-19 14:31:00,
2013-05-19 07:36:00,58.9,46.3,30.02,ESE,117,0.0,0.0,63,0.00,CLR,,0.00,WeatherDisplay:10.37,2013-05-19 14:36:00,
2013-05-19 07:41:00,59.2,46.6,30.02,SSE,165,0.0,0.0,63,0.00,CLR,,0.00,WeatherDisplay:10.37,2013-05-19 14:41:00,
2013-05-19 07:46:00,59.5,47.3,30.02,WSW,240,0.0,0.0,64,0.00,CLR,,0.00,WeatherDisplay:10.37,2013-05-19 14:46:00,
2013-05-19 07:51:00,59.9,47.3,30.02,WSW,240,0.0,0.0,63,0.00,CLR,,0.00,WeatherDisplay:10.37,2013-05-19 14:51:00,
2013-05-19 07:56:00,60.1,48.7,30.02,WSW,240,0.0,0.0,66,0.00,CLR,,0.00,WeatherDisplay:10.37,2013-05-19 14:56:00,
2013-05-19 08:01:00,60.3,47.6,30.02,WNW,283,1.2,1.2,63,0.00,CLR,,0.00,WeatherDisplay:10.37,2013-05-19 15:01:00,
2013-05-19 08:06:00,60.6,47.5,30.02,SSW,212,0.0,0.0,62,0.00,CLR,,0.00,WeatherDisplay:10.37,2013-05-19 15:06:00,
2013-05-19 08:11:00,61.1,47.5,30.02,West,262,1.2,0.0,61,0.00,CLR,,0.00,WeatherDisplay:10.37,2013-05-19 15:11:00,
2013-05-19 08:16:00,61.5,47.5,30.02,South,191,1.2,1.2,60,0.00,CLR,,0.00,WeatherDisplay:10.37,2013-05-19 15:16:00,
2013-05-19 08:21:00,61.9,47.4,30.02,WSW,256,0.0,0.1,59,0.00,CLR,,0.00,WeatherDisplay:10.37,2013-05-19 15:21:00,
2013-05-19 08:26:00,62.3,48.2,30.02,SSW,207,0.0,0.0,60,0.00,CLR,,0.00,WeatherDisplay:10.37,2013-05-19 15:26:00,
2013-05-19 08:31:00,62.6,48.1,30.02,ESE,105,0.0,0.0,59,0.00,CLR,,0.00,WeatherDisplay:10.37,2013-05-19 15:31:00,
2013-05-19 08:36:00,63.0,48.0,30.02,WSW,238,1.2,0.0,58,0.00,CLR,,0.00,WeatherDisplay:10.37,2013-05-19 15:36:00,
2013-05-19 08:41:00,63.5,48.9,30.02,SW,234,0.0,0.0,59,0.00,CLR,,0.00,WeatherDisplay:10.37,2013-05-19 15:41:00,
2013-05-19 08:46:00,63.9,48.8,30.02,SSW,212,1.2,0.0,58,0.00,CLR,,0.00,WeatherDisplay:10.37,2013-05-19 15:46:00,
2013-05-19 08:51:00,64.3,48.7,30.03,SW,222,1.2,1.2,57,0.00,CLR,,0.00,WeatherDisplay:10.37,2013-05-19 15:51:00,
2013-05-19 08:56:00,64.6,49.0,30.03,SW,215,1.2,1.2,57,0.00,CLR,,0.00,WeatherDisplay:10.37,2013-05-19 15:56:00,
2013-05-19 09:01:00,64.9,49.3,30.03,South,172,0.0,0.0,57,0.00,CLR,,0.00,WeatherDisplay:10.37,2013-05-19 16:01:00,
2013-05-19 09:06:00,65.4,49.8,30.03,SE,128,0.0,0.0,57,0.00,CLR,,0.00,WeatherDisplay:10.37,2013-05-19 16:06:00,
2013-05-19 09:11:00,65.9,49.8,30.03,West,262,1.2,1.2,56,0.00,CLR,,0.00,WeatherDisplay:10.37,2013-05-19 16:11:00,
2013-05-19 09:16:00,66.2,50.0,30.03,SE,142,1.2,1.2,56,0.00,CLR,,0.00,WeatherDisplay:10.37,2013-05-19 16:16:00,
2013-05-19 09:21:00,66.4,49.7,30.03,SW,231,1.2,1.2,55,0.00,CLR,,0.00,WeatherDisplay:10.37,2013-05-19 16:21:00,
2013-05-19 09:26:00,66.7,50.5,30.03,WNW,302,0.0,0.2,56,0.00,CLR,,0.00,WeatherDisplay:10.37,2013-05-19 16:26:00,
2013-05-19 09:31:00,66.8,50.1,30.03,SW,217,1.0,1.0,55,0.00,CLR,,0.00,WeatherDisplay:10.37,2013-05-19 16:31:00,
2013-05-19 09:36:00,67.1,50.9,30.02,WSW,238,1.2,0.0,56,0.00,CLR,,0.00,WeatherDisplay:10.37,2013-05-19 16:36:00,
2013-05-19 09:41:00,67.5,50.8,30.02,North,9,1.2,1.2,55,0.00,CLR,,0.00,WeatherDisplay:10.37,2013-05-19 16:41:00,
2013-05-19 09:46:00,68.0,51.7,30.02,SSW,212,0.0,0.1,56,0.00,CLR,,0.00,WeatherDisplay:10.37,2013-05-19 16:46:00,
2013-05-19 09:51:00,68.4,51.6,30.02,ESE,109,1.2,1.2,55,0.00,CLR,,0.00,WeatherDisplay:10.37,2013-05-19 16:51:00,
2013-05-19 09:56:00,68.7,51.9,30.02,NW,304,1.0,0.0,55,0.00,CLR,,0.00,WeatherDisplay:10.37,2013-05-19 16:56:00,
2013-05-19 10:01:00,68.9,52.1,30.02,WSW,256,0.0,0.0,55,0.00,CLR,,0.00,WeatherDisplay:10.37,2013-05-19 17:01:00,
2013-05-19 10:06:00,69.1,51.8,30.02,SSW,204,1.2,1.2,54,0.00,CLR,,0.00,WeatherDisplay:10.37,2013-05-19 17:06:00,
2013-05-19 10:11:00,69.5,52.1,30.02,SW,226,1.2,1.2,54,0.00,CLR,,0.00,WeatherDisplay:10.37,2013-05-19 17:11:00,
2013-05-19 10:16:00,69.8,52.4,30.01,SSW,209,0.0,0.0,54,0.00,CLR,,0.00,WeatherDisplay:10.37,2013-05-19 17:16:00,
2013-05-19 10:21:00,70.0,52.1,30.01,West,260,1.2,1.2,53,0.00,CLR,,0.00,WeatherDisplay:10.37,2013-05-19 17:21:00,
2013-05-19 10:26:00,70.4,53.0,30.01,ESE,122,1.2,1.2,54,0.00,CLR,,0.00,WeatherDisplay:10.37,2013-05-19 17:26:00,
2013-05-19 10:31:00,70.9,52.4,30.01,WNW,290,2.0,2.0,52,0.00,CLR,,0.00,WeatherDisplay:10.37,2013-05-19 17:31:00,
2013-05-19 10:36:00,71.0,52.5,30.01,WSW,243,1.2,0.0,52,0.00,CLR,,0.00,WeatherDisplay:10.37,2013-05-19 17:36:00,
2013-05-19 10:41:00,71.1,52.6,30.01,South,184,1.2,1.2,52,0.00,CLR,,0.00,WeatherDisplay:10.37,2013-05-19 17:41:00,
2013-05-19 10:46:00,71.4,52.9,30.01,SW,221,1.2,0.0,52,0.00,CLR,,0.00,WeatherDisplay:10.37,2013-05-19 17:46:00,
2013-05-19 10:51:00,71.6,52.5,30.01,South,184,1.0,1.0,51,0.00,CLR,,0.00,WeatherDisplay:10.37,2013-05-19 17:51:00,
2013-05-19 10:56:00,72.1,53.0,30.01,WSW,240,1.2,1.2,51,0.00,CLR,,0.00,WeatherDisplay:10.37,2013-05-19 17:56:00,
2013-05-19 11:01:00,72.4,52.7,30.00,WNW,293,2.3,2.3,50,0.00,CLR,,0.00,WeatherDisplay:10.37,2013-05-19 18:01:00,
2013-05-19 11:06:00,73.0,54.3,30.00,SSE,148,0.0,0.1,52,0.00,CLR,,0.00,WeatherDisplay:10.37,2013-05-19 18:06:00,
2013-05-19 11:11:00,73.5,54.8,30.00,SW,218,1.2,0.0,52,0.00,CLR,,0.00,WeatherDisplay:10.37,2013-05-19 18:11:00,
2013-05-19 11:16:00,73.9,53.5,30.00,SSE,153,0.0,0.1,49,0.00,CLR,,0.00,WeatherDisplay:10.37,2013-05-19 18:16:00,
2013-05-19 11:21:00,74.2,52.7,30.00,South,186,1.2,0.0,47,0.00,CLR,,0.00,WeatherDisplay:10.37,2013-05-19 18:21:00,
2013-05-19 11:26:00,74.4,52.9,30.00,SW,218,2.3,2.3,47,0.00,CLR,,0.00,WeatherDisplay:10.37,2013-05-19 18:26:00,
2013-05-19 11:31:00,74.7,51.9,30.00,SSE,165,1.2,1.2,45,0.00,CLR,,0.00,WeatherDisplay:10.37,2013-05-19 18:31:00,
2013-05-19 11:36:00,74.9,52.7,30.00,SSE,163,1.2,1.2,46,0.00,CLR,,0.00,WeatherDisplay:10.37,2013-05-19 18:36:00,
2013-05-19 11:41:00,75.5,53.3,29.99,SSW,212,1.2,0.0,46,0.00,CLR,,0.00,WeatherDisplay:10.37,2013-05-19 18:41:00,
2013-05-19 11:46:00,76.0,54.3,30.00,SSW,204,2.3,2.3,47,0.00,CLR,,0.00,WeatherDisplay:10.37,2013-05-19 18:46:00,
2013-05-19 11:51:00,76.4,54.1,29.99,WNW,283,1.2,0.0,46,0.00,CLR,,0.00,WeatherDisplay:10.37,2013-05-19 18:51:00,
2013-05-19 11:56:00,77.1,54.1,29.99,SSE,159,1.2,1.2,45,0.00,CLR,,0.00,WeatherDisplay:10.37,2013-05-19 18:56:00,
2013-05-19 12:01:00,77.7,54.0,29.99,SE,141,1.2,1.2,44,0.00,CLR,,0.00,WeatherDisplay:10.37,2013-05-19 19:01:00,
2013-05-19 12:06:00,78.1,53.1,29.99,South,177,1.2,1.2,42,0.00,CLR,,0.00,WeatherDisplay:10.37,2013-05-19 19:06:00,
2013-05-19 12:11:00,78.7,53.0,29.99,SW,224,3.5,3.5,41,0.00,CLR,,0.00,WeatherDisplay:10.37,2013-05-19 19:11:00,
2013-05-19 12:16:00,78.5,54.8,29.99,WSW,257,3.5,0.0,44,0.00,CLR,,0.00,WeatherDisplay:10.37,2013-05-19 19:16:00,
2013-05-19 12:21:00,79.4,53.0,29.98,West,278,1.2,1.2,40,0.00,CLR,,0.00,WeatherDisplay:10.37,2013-05-19 19:21:00,
2013-05-19 12:26:00,80.0,52.1,29.98,WNW,302,1.2,1.2,38,0.00,CLR,,0.00,WeatherDisplay:10.37,2013-05-19 19:26:00,
2013-05-19 12:31:00,80.2,53.7,29.98,North,356,2.0,2.0,40,0.00,CLR,,0.00,WeatherDisplay:10.37,2013-05-19 19:31:00,
2013-05-19 12:38:00,80.8,53.5,29.98,West,281,0.0,0.1,39,0.00,CLR,,0.00,WeatherDisplay:10.37,2013-05-19 19:38:00,
2013-05-19 12:43:00,81.1,53.1,29.97,ESE,123,1.2,1.2,38,0.00,CLR,,0.00,WeatherDisplay:10.37,2013-05-19 19:43:00,
2013-05-19 12:48:00,81.3,53.3,29.97,ESE,114,1.2,0.0,38,0.00,CLR,,0.00,WeatherDisplay:10.37,2013-05-19 19:48:00,
2013-05-19 12:53:00,81.5,54.8,29.97,SSE,149,0.0,0.0,40,0.00,CLR,,0.00,WeatherDisplay:10.37,2013-05-19 19:53:00,
2013-05-19 12:58:00,81.6,53.5,29.97,North,3,3.5,3.5,38,0.00,CLR,,0.00,WeatherDisplay:10.37,2013-05-19 19:58:00,
2013-05-19 13:03:00,81.6,53.5,29.97,West,260,0.0,0.0,38,0.00,CLR,,0.00,WeatherDisplay:10.37,2013-05-19 20:03:00,
2013-05-19 13:08:00,81.9,52.3,29.97,NW,324,2.3,2.3,36,0.00,CLR,,0.00,WeatherDisplay:10.37,2013-05-19 20:08:00,
2013-05-19 13:13:00,82.6,51.4,29.96,SW,235,3.5,3.5,34,0.00,CLR,,0.00,WeatherDisplay:10.37,2013-05-19 20:13:00,
2013-05-19 13:18:00,83.1,54.1,29.96,ESE,107,1.2,0.0,37,0.00,CLR,,0.00,WeatherDisplay:10.37,2013-05-19 20:18:00,
2013-05-19 13:23:00,83.4,52.1,29.96,NNW,347,3.0,3.0,34,0.00,CLR,,0.00,WeatherDisplay:10.37,2013-05-19 20:23:00,
2013-05-19 13:28:00,82.3,51.1,29.96,NE,54,1.2,1.2,34,0.00,CLR,,0.00,WeatherDisplay:10.37,2013-05-19 20:28:00,
2013-05-19 13:33:00,82.5,52.1,29.96,WNW,300,1.2,1.2,35,0.00,CLR,,0.00,WeatherDisplay:10.37,2013-05-19 20:33:00,
2013-05-19 13:38:00,83.3,53.6,29.96,North,9,2.3,2.3,36,0.00,CLR,,0.00,WeatherDisplay:10.37,2013-05-19 20:38:00,
2013-05-19 13:43:00,83.1,53.4,29.95,ESE,108,1.2,1.2,36,0.00,CLR,,0.00,WeatherDisplay:10.37,2013-05-19 20:43:00,
2013-05-19 13:48:00,83.6,52.3,29.95,SSE,150,3.5,3.5,34,0.00,CLR,,0.00,WeatherDisplay:10.37,2013-05-19 20:48:00,
2013-05-19 13:53:00,84.2,52.8,29.95,South,181,1.2,1.2,34,0.00,CLR,,0.00,WeatherDisplay:10.37,2013-05-19 20:53:00,
2013-05-19 13:58:00,84.8,52.5,29.95,WNW,290,0.0,0.7,33,0.00,CLR,,0.00,WeatherDisplay:10.37,2013-05-19 20:58:00,
2013-05-19 14:03:00,84.9,52.6,29.95,WNW,294,1.2,1.2,33,0.00,CLR,,0.00,WeatherDisplay:10.37,2013-05-19 21:03:00,
2013-05-19 14:08:00,84.5,53.0,29.94,North,352,1.2,1.2,34,0.00,CLR,,0.00,WeatherDisplay:10.37,2013-05-19 21:08:00,
2013-05-19 14:13:00,84.7,52.4,29.94,NNW,330,3.5,3.5,33,0.00,CLR,,0.00,WeatherDisplay:10.37,2013-05-19 21:13:00,
2013-05-19 14:18:00,84.6,52.3,29.94,North,352,3.0,3.0,33,0.00,CLR,,0.00,WeatherDisplay:10.37,2013-05-19 21:18:00,
2013-05-19 14:23:00,84.7,52.4,29.94,West,278,3.0,3.0,33,0.00,CLR,,0.00,WeatherDisplay:10.37,2013-05-19 21:23:00,
2013-05-19 14:28:00,84.7,48.9,29.94,West,279,1.2,1.2,29,0.00,CLR,,0.00,WeatherDisplay:10.37,2013-05-19 21:28:00,
2013-05-19 14:33:00,85.2,49.4,29.94,NE,39,0.0,0.0,29,0.00,CLR,,0.00,WeatherDisplay:10.37,2013-05-19 21:33:00,
2013-05-19 14:38:00,86.3,50.3,29.93,West,267,2.3,2.3,29,0.00,CLR,,0.00,WeatherDisplay:10.37,2013-05-19 21:38:00,
2013-05-19 14:43:00,86.5,51.4,29.93,WSW,258,1.2,1.2,30,0.00,CLR,,0.00,WeatherDisplay:10.37,2013-05-19 21:43:00,
2013-05-19 14:48:00,86.1,53.6,29.93,North,5,3.5,3.5,33,0.00,CLR,,0.00,WeatherDisplay:10.37,2013-05-19 21:48:00,
2013-05-19 14:53:00,86.5,51.4,29.93,WNW,284,2.3,2.3,30,0.00,CLR,,0.00,WeatherDisplay:10.37,2013-05-19 21:53:00,
2013-05-19 14:58:00,87.3,51.2,29.92,East,98,1.2,1.2,29,0.00,CLR,,0.00,WeatherDisplay:10.37,2013-05-19 21:58:00,
2013-05-19 15:03:00,87.2,51.1,29.92,SE,126,3.5,3.5,29,0.00,CLR,,0.00,WeatherDisplay:10.37,2013-05-19 22:03:00,
2013-05-19 15:08:00,86.7,49.7,29.92,WSW,240,2.3,2.3,28,0.00,CLR,,0.00,WeatherDisplay:10.37,2013-05-19 22:08:00,
2013-05-19 15:13:00,86.6,48.6,29.92,NNW,345,2.0,2.0,27,0.00,CLR,,0.00,WeatherDisplay:10.37,2013-05-19 22:13:00,
2013-05-19 15:18:00,86.5,50.5,29.92,NNW,348,2.3,2.3,29,0.00,CLR,,0.00,WeatherDisplay:10.37,2013-05-19 22:18:00,
2013-05-19 15:23:00,86.8,47.8,29.92,NW,307,2.3,2.3,26,0.00,CLR,,0.00,WeatherDisplay:10.37,2013-05-19 22:23:00,
2013-05-19 15:28:00,86.9,49.9,29.92,West,264,2.3,2.3,28,0.00,CLR,,0.00,WeatherDisplay:10.37,2013-05-19 22:28:00,
2013-05-19 15:33:00,86.7,47.7,29.91,ENE,69,2.3,2.3,26,0.00,CLR,,0.00,WeatherDisplay:10.37,2013-05-19 22:33:00,
2013-05-19 15:38:00,86.5,47.5,29.91,WNW,285,2.3,2.3,26,0.00,CLR,,0.00,WeatherDisplay:10.37,2013-05-19 22:38:00,
2013-05-19 15:43:00,86.9,47.9,29.91,West,264,0.0,0.3,26,0.00,CLR,,0.00,WeatherDisplay:10.37,2013-05-19 22:43:00,
2013-05-19 15:48:00,88.1,49.9,29.91,WNW,298,2.3,2.3,27,0.00,CLR,,0.00,WeatherDisplay:10.37,2013-05-19 22:48:00,
2013-05-19 15:53:00,88.1,48.9,29.91,NNW,345,3.5,3.5,26,0.00,CLR,,0.00,WeatherDisplay:10.37,2013-05-19 22:53:00,
2013-05-19 15:58:00,88.1,49.9,29.90,WNW,297,1.2,0.0,27,0.00,CLR,,0.00,WeatherDisplay:10.37,2013-05-19 22:58:00,
2013-05-19 16:03:00,88.7,48.4,29.90,NNW,330,1.2,0.0,25,0.00,CLR,,0.00,WeatherDisplay:10.37,2013-05-19 23:03:00,
2013-05-19 16:08:00,88.4,48.1,29.90,NE,46,3.5,3.5,25,0.00,CLR,,0.00,WeatherDisplay:10.37,2013-05-19 23:08:00,
2013-05-19 16:13:00,87.9,48.7,29.90,ESE,112,3.5,3.5,26,0.00,CLR,,0.00,WeatherDisplay:10.37,2013-05-19 23:13:00,
2013-05-19 16:18:00,87.8,48.6,29.90,West,263,2.3,2.3,26,0.00,CLR,,0.00,WeatherDisplay:10.37,2013-05-19 23:18:00,
2013-05-19 16:23:00,87.9,47.7,29.90,East,84,1.2,1.2,25,0.00,CLR,,0.00,WeatherDisplay:10.37,2013-05-19 23:23:00,
2013-05-19 16:28:00,87.6,47.4,29.89,North,350,3.5,3.5,25,0.00,CLR,,0.00,WeatherDisplay:10.37,2013-05-19 23:28:00,
2013-05-19 16:33:00,87.4,47.3,29.89,NNW,341,1.2,1.2,25,0.00,CLR,,0.00,WeatherDisplay:10.37,2013-05-19 23:33:00,
2013-05-19 16:38:00,88.1,48.9,29.89,South,176,2.3,2.3,26,0.00,CLR,,0.00,WeatherDisplay:10.37,2013-05-19 23:38:00,
2013-05-19 16:43:00,88.8,48.4,29.89,NW,325,3.5,3.5,25,0.00,CLR,,0.00,WeatherDisplay:10.37,2013-05-19 23:43:00,
2013-05-19 16:48:00,87.4,47.3,29.89,NNW,347,3.5,3.5,25,0.00,CLR,,0.00,WeatherDisplay:10.37,2013-05-19 23:48:00,
2013-05-19 16:53:00,86.8,47.8,29.89,NNW,343,2.3,2.3,26,0.00,CLR,,0.00,WeatherDisplay:10.37,2013-05-19 23:53:00,
2013-05-19 16:58:00,87.4,46.2,29.88,North,1,1.2,1.3,24,0.00,CLR,,0.00,WeatherDisplay:10.37,2013-05-19 23:58:00,
2013-05-19 17:03:00,87.5,47.3,29.88,NE,50,2.3,2.3,25,0.00,CLR,,0.00,WeatherDisplay:10.37,2013-05-20 00:03:00,
2013-05-19 17:08:00,88.0,46.7,29.88,SSW,198,1.2,0.0,24,0.00,CLR,,0.00,WeatherDisplay:10.37,2013-05-20 00:08:00,
2013-05-19 17:13:00,88.6,47.2,29.88,NNE,16,1.2,1.2,24,0.00,CLR,,0.00,WeatherDisplay:10.37,2013-05-20 00:13:00,
2013-05-19 17:18:00,89.3,46.6,29.88,West,262,1.2,0.0,23,0.00,CLR,,0.00,WeatherDisplay:10.37,2013-05-20 00:18:00,
2013-05-19 17:23:00,89.6,46.9,29.88,WNW,300,3.5,3.5,23,0.00,CLR,,0.00,WeatherDisplay:10.37,2013-05-20 00:23:00,
2013-05-19 17:28:00,89.3,47.8,29.88,NW,319,1.2,1.2,24,0.00,CLR,,0.00,WeatherDisplay:10.37,2013-05-20 00:28:00,
2013-05-19 17:33:00,89.0,47.5,29.88,NNW,336,4.0,4.0,24,0.00,CLR,,0.00,WeatherDisplay:10.37,2013-05-20 00:33:00,
2013-05-19 17:38:00,88.1,46.8,29.87,NE,51,3.5,3.5,24,0.00,CLR,,0.00,WeatherDisplay:10.37,2013-05-20 00:38:00,
2013-05-19 17:43:00,87.9,46.6,29.87,NNW,330,6.0,6.0,24,0.00,CLR,,0.00,WeatherDisplay:10.37,2013-05-20 00:43:00,
2013-05-19 17:48:00,86.9,46.8,29.87,WNW,300,1.2,1.2,25,0.00,CLR,,0.00,WeatherDisplay:10.37,2013-05-20 00:48:00,
2013-05-19 17:53:00,86.8,47.8,29.87,North,351,2.3,2.3,26,0.00,CLR,,0.00,WeatherDisplay:10.37,2013-05-20 00:53:00,
2013-05-19 17:58:00,87.2,48.1,29.87,North,6,2.0,2.0,26,0.00,CLR,,0.00,WeatherDisplay:10.37,2013-05-20 00:58:00,
2013-05-19 18:03:00,87.2,48.1,29.87,WSW,253,2.3,2.3,26,0.00,CLR,,0.00,WeatherDisplay:10.37,2013-05-20 01:03:00,
2013-05-19 18:08:00,87.3,47.2,29.87,NW,324,1.2,0.0,25,0.00,CLR,,0.00,WeatherDisplay:10.37,2013-05-20 01:08:00,
2013-05-19 18:13:00,87.8,47.6,29.87,WNW,294,3.5,3.5,25,0.00,CLR,,0.00,WeatherDisplay:10.37,2013-05-20 01:13:00,
2013-05-19 18:18:00,87.8,46.5,29.86,North,8,1.2,1.2,24,0.00,CLR,,0.00,WeatherDisplay:10.37,2013-05-20 01:18:00,
2013-05-19 18:23:00,87.2,47.1,29.86,North,360,3.5,3.5,25,0.00,CLR,,0.00,WeatherDisplay:10.37,2013-05-20 01:23:00,
2013-05-19 18:28:00,87.3,47.2,29.86,NNW,327,1.2,1.2,25,0.00,CLR,,0.00,WeatherDisplay:10.37,2013-05-20 01:28:00,
2013-05-19 18:33:00,86.6,46.6,29.86,NW,307,3.5,3.5,25,0.00,CLR,,0.00,WeatherDisplay:10.37,2013-05-20 01:33:00,
2013-05-19 18:38:00,86.0,48.1,29.86,West,267,3.5,3.5,27,0.00,CLR,,0.00,WeatherDisplay:10.37,2013-05-20 01:38:00,
2013-05-19 18:43:00,86.1,48.2,29.86,NNW,339,2.3,2.3,27,0.00,CLR,,0.00,WeatherDisplay:10.37,2013-05-20 01:43:00,
2013-05-19 18:48:00,85.8,46.9,29.86,North,356,2.3,2.3,26,0.00,CLR,,0.00,WeatherDisplay:10.37,2013-05-20 01:48:00,
2013-05-19 18:53:00,85.5,47.7,29.86,WNW,302,2.0,2.0,27,0.00,CLR,,0.00,WeatherDisplay:10.37,2013-05-20 01:53:00,
2013-05-19 18:58:00,84.7,47.0,29.86,NNW,330,1.2,1.2,27,0.00,CLR,,0.00,WeatherDisplay:10.37,2013-05-20 01:58:00,
2013-05-19 19:03:00,83.8,48.1,29.86,South,191,2.3,2.3,29,0.00,CLR,,0.00,WeatherDisplay:10.37,2013-05-20 02:03:00,
2013-05-19 19:08:00,83.1,48.5,29.86,North,360,1.2,0.0,30,0.00,CLR,,0.00,WeatherDisplay:10.37,2013-05-20 02:08:00,
2013-05-19 19:13:00,82.7,48.1,29.86,NNE,30,1.2,1.2,30,0.00,CLR,,0.00,WeatherDisplay:10.37,2013-05-20 02:13:00,
2013-05-19 19:18:00,82.3,48.6,29.86,NW,311,0.0,0.0,31,0.00,CLR,,0.00,WeatherDisplay:10.37,2013-05-20 02:18:00,
2013-05-19 19:23:00,81.8,49.1,29.86,NNE,12,1.2,1.2,32,0.00,CLR,,0.00,WeatherDisplay:10.37,2013-05-20 02:23:00,
2013-05-19 19:28:00,81.3,48.6,29.87,NNW,345,1.2,1.2,32,0.00,CLR,,0.00,WeatherDisplay:10.37,2013-05-20 02:28:00,
2013-05-19 19:33:00,80.9,49.1,29.87,WNW,285,0.0,0.0,33,0.00,CLR,,0.00,WeatherDisplay:10.37,2013-05-20 02:33:00,
2013-05-19 19:38:00,80.5,48.7,29.87,WSW,238,1.2,0.0,33,0.00,CLR,,0.00,WeatherDisplay:10.37,2013-05-20 02:38:00,
2013-05-19 19:43:00,80.1,48.4,29.87,North,349,0.0,0.0,33,0.00,CLR,,0.00,WeatherDisplay:10.37,2013-05-20 02:43:00,
2013-05-19 19:48:00,79.7,48.8,29.87,NNW,333,1.2,0.0,34,0.00,CLR,,0.00,WeatherDisplay:10.37,2013-05-20 02:48:00,
2013-05-19 19:53:00,79.3,48.5,29.87,NNW,333,0.0,0.0,34,0.00,CLR,,0.00,WeatherDisplay:10.37,2013-05-20 02:53:00,
2013-05-19 19:58:00,78.9,48.1,29.87,NNW,333,0.0,0.0,34,0.00,CLR,,0.00,WeatherDisplay:10.37,2013-05-20 02:58:00,
2013-05-19 20:03:00,78.4,48.5,29.87,NNW,333,0.0,0.0,35,0.00,CLR,,0.00,WeatherDisplay:10.37,2013-05-20 03:03:00,
2013-05-19 20:08:00,78.0,48.9,29.87,NW,325,0.0,0.0,36,0.00,CLR,,0.00,WeatherDisplay:10.37,2013-05-20 03:08:00,
2013-05-19 20:13:00,77.7,49.3,29.88,NW,325,0.0,0.0,37,0.00,CLR,,0.00,WeatherDisplay:10.37,2013-05-20 03:13:00,
2013-05-19 20:18:00,77.4,49.8,29.88,NW,324,0.0,0.0,38,0.00,CLR,,0.00,WeatherDisplay:10.37,2013-05-20 03:18:00,
2013-05-19 20:23:00,77.1,48.8,29.88,NW,324,0.0,0.0,37,0.00,CLR,,0.00,WeatherDisplay:10.37,2013-05-20 03:23:00,
2013-05-19 20:28:00,76.8,49.3,29.88,NW,325,0.0,0.0,38,0.00,CLR,,0.00,WeatherDisplay:10.37,2013-05-20 03:28:00,
2013-05-19 20:33:00,76.5,49.7,29.88,NW,325,0.0,0.0,39,0.00,CLR,,0.00,WeatherDisplay:10.37,2013-05-20 03:33:00,
2013-05-19 20:38:00,76.2,49.4,29.88,NW,324,0.0,0.0,39,0.00,CLR,,0.00,WeatherDisplay:10.37,2013-05-20 03:38:00,
2013-05-19 20:43:00,75.8,49.8,29.88,NW,324,0.0,0.0,40,0.00,CLR,,0.00,WeatherDisplay:10.37,2013-05-20 03:43:00,
2013-05-19 20:48:00,75.2,49.2,29.88,NW,324,0.0,0.0,40,0.00,CLR,,0.00,WeatherDisplay:10.37,2013-05-20 03:48:00,
2013-05-19 20:53:00,74.7,49.4,29.88,NW,324,0.0,0.0,41,0.00,CLR,,0.00,WeatherDisplay:10.37,2013-05-20 03:53:00,
2013-05-19 20:58:00,74.2,48.3,29.89,NW,325,0.0,0.0,40,0.00,CLR,,0.00,WeatherDisplay:10.37,2013-05-20 03:58:00,
2013-05-19 21:01:00,74.0,48.1,29.89,NW,324,0.0,0.0,40,0.00,CLR,,0.00,WeatherDisplay:10.37,2013-05-20 04:01:00,
2013-05-19 21:06:00,73.9,48.7,29.89,NW,324,0.0,0.0,41,0.00,CLR,,0.00,WeatherDisplay:10.37,2013-05-20 04:06:00,
2013-05-19 21:11:00,73.8,49.3,29.89,NW,325,0.0,0.0,42,0.00,CLR,,0.00,WeatherDisplay:10.37,2013-05-20 04:11:00,
2013-05-19 21:16:00,73.6,49.1,29.89,NW,324,0.0,0.0,42,0.00,CLR,,0.00,WeatherDisplay:10.37,2013-05-20 04:16:00,
2013-05-19 21:21:00,73.3,48.2,29.89,NW,324,0.0,0.0,41,0.00,CLR,,0.00,WeatherDisplay:10.37,2013-05-20 04:21:00,
2013-05-19 21:26:00,73.1,49.3,29.90,NW,324,0.0,0.0,43,0.00,CLR,,0.00,WeatherDisplay:10.37,2013-05-20 04:26:00,
2013-05-19 21:31:00,72.8,50.2,29.90,NW,325,0.0,0.0,45,0.00,CLR,,0.00,WeatherDisplay:10.37,2013-05-20 04:31:00,
2013-05-19 21:36:00,72.4,51.6,29.90,NW,325,0.0,0.0,48,0.00,CLR,,0.00,WeatherDisplay:10.37,2013-05-20 04:36:00,
2013-05-19 21:41:00,71.8,49.3,29.90,NW,325,0.0,0.0,45,0.00,CLR,,0.00,WeatherDisplay:10.37,2013-05-20 04:41:00,
2013-05-19 21:46:00,71.3,48.9,29.91,NW,325,0.0,0.0,45,0.00,CLR,,0.00,WeatherDisplay:10.37,2013-05-20 04:46:00,
2013-05-19 21:51:00,70.9,50.2,29.91,NW,325,0.0,0.0,48,0.00,CLR,,0.00,WeatherDisplay:10.37,2013-05-20 04:51:00,
2013-05-19 21:56:00,70.5,48.7,29.91,NW,324,0.0,0.0,46,0.00,CLR,,0.00,WeatherDisplay:10.37,2013-05-20 04:56:00,
2013-05-19 22:01:00,70.2,49.6,29.91,NW,325,0.0,0.0,48,0.00,CLR,,0.00,WeatherDisplay:10.37,2013-05-20 05:01:00,
2013-05-19 22:06:00,69.8,49.2,29.91,NW,325,0.0,0.0,48,0.00,CLR,,0.00,WeatherDisplay:10.37,2013-05-20 05:06:00,
2013-05-19 22:11:00,69.5,50.0,29.92,NW,325,0.0,0.0,50,0.00,CLR,,0.00,WeatherDisplay:10.37,2013-05-20 05:11:00,
2013-05-19 22:16:00,69.2,51.3,29.91,NW,324,0.0,0.0,53,0.00,CLR,,0.00,WeatherDisplay:10.37,2013-05-20 05:16:00,
2013-05-19 22:21:00,68.9,50.0,29.92,NW,325,0.0,0.0,51,0.00,CLR,,0.00,WeatherDisplay:10.37,2013-05-20 05:21:00,
2013-05-19 22:26:00,68.6,50.3,29.92,NW,325,0.0,0.0,52,0.00,CLR,,0.00,WeatherDisplay:10.37,2013-05-20 05:26:00,
2013-05-19 22:31:00,68.4,50.1,29.92,NW,324,0.0,0.0,52,0.00,CLR,,0.00,WeatherDisplay:10.37,2013-05-20 05:31:00,
2013-05-19 22:36:00,68.1,50.3,29.92,NW,325,0.0,0.0,53,0.00,CLR,,0.00,WeatherDisplay:10.37,2013-05-20 05:36:00,
2013-05-19 22:41:00,67.8,50.5,29.92,NW,324,0.0,0.0,54,0.00,CLR,,0.00,WeatherDisplay:10.37,2013-05-20 05:41:00,
2013-05-19 22:46:00,67.5,50.3,29.92,NW,325,0.0,0.0,54,0.00,CLR,,0.00,WeatherDisplay:10.37,2013-05-20 05:46:00,
2013-05-19 22:51:00,67.3,49.6,29.92,NW,324,0.0,0.0,53,0.00,CLR,,0.00,WeatherDisplay:10.37,2013-05-20 05:51:00,
2013-05-19 22:56:00,67.1,49.9,29.92,NW,324,0.0,0.0,54,0.00,CLR,,0.00,WeatherDisplay:10.37,2013-05-20 05:56:00,
2013-05-19 23:01:00,67.0,49.8,29.92,NW,324,0.0,0.0,54,0.00,CLR,,0.00,WeatherDisplay:10.37,2013-05-20 06:01:00,
2013-05-19 23:06:00,67.1,50.9,29.92,NW,325,0.0,0.0,56,0.00,CLR,,0.00,WeatherDisplay:10.37,2013-05-20 06:06:00,
2013-05-19 23:11:00,66.9,50.2,29.92,NW,324,0.0,0.0,55,0.00,CLR,,0.00,WeatherDisplay:10.37,2013-05-20 06:11:00,
2013-05-19 23:16:00,66.8,51.5,29.92,NW,324,0.0,0.0,58,0.00,CLR,,0.00,WeatherDisplay:10.37,2013-05-20 06:16:00,
2013-05-19 23:21:00,66.5,50.3,29.92,NW,325,0.0,0.0,56,0.00,CLR,,0.00,WeatherDisplay:10.37,2013-05-20 06:21:00,
2013-05-19 23:26:00,66.2,50.0,29.92,NW,324,0.0,0.0,56,0.00,CLR,,0.00,WeatherDisplay:10.37,2013-05-20 06:26:00,
2013-05-19 23:31:00,66.0,50.8,29.92,NW,324,0.0,0.0,58,0.00,CLR,,0.00,WeatherDisplay:10.37,2013-05-20 06:31:00,
2013-05-19 23:36:00,65.8,51.5,29.92,NW,325,0.0,0.0,60,0.00,CLR,,0.00,WeatherDisplay:10.37,2013-05-20 06:36:00,
2013-05-19 23:41:00,65.7,50.5,29.92,NW,325,0.0,0.0,58,0.00,CLR,,0.00,WeatherDisplay:10.37,2013-05-20 06:41:00,
2013-05-19 23:46:00,65.5,51.2,29.92,NW,325,0.0,0.0,60,0.00,CLR,,0.00,WeatherDisplay:10.37,2013-05-20 06:46:00,
2013-05-19 23:51:00,65.6,50.9,29.92,NW,324,0.0,0.0,59,0.00,CLR,,0.00,WeatherDisplay:10.37,2013-05-20 06:51:00,
2013-05-19 23:56:00,65.4,50.7,29.92,NW,324,0.0,0.0,59,0.00,CLR,,0.00,WeatherDisplay:10.37,2013-05-20 06:56:00,